カタリナ彗星

499P/Catalina (2025)

English version
Home page
Updated on June 29, 2025

---------------------------------------------------------------------

・ プロフィール

符号 499P/2025 A5
検出日 2025年1月7日、1月29日
検出光度 19.5等、18.3等
検出者 Pan-STARRS 1 telescope (Haleakala), E. Prosperi and M. Jaeger (Martinsberg, Oed, Austria)

・ 写真集

・ 軌道要素

Epoch 2025 May 5.0 TT = JDT 2460800.5                                           
T 2025 Mar. 4.39254 TT                                  Pike                    
q   0.9310447            (2000.0)            P               Q                  
n   0.18802944     Peri.    2.55546     -0.78391910     -0.55848746             
a   3.0175338      Node   139.30916     +0.56199839     -0.82397035             
e   0.6914551      Incl.   24.58247     +0.26387241     +0.09573198             
P   5.24                                                                        
From 210 observations 2019 Nov. 1-2025 Feb. 5, mean residual 0".8.              

・ 星図

・ 光度変化

        m1 = 18.5 + 5 logΔ + 10.0 log r

---------------------------------------------------------------------

軌道要素はM.P.E.C. 2025-C161に掲載されたものです。
星図はステラナビゲータ Ver.11 (アストロアーツ) で作成したものです。
光度グラフはComet for Windowsで作成したものです。

---------------------------------------------------------------------

Copyright(C) Seiichi Yoshida (comet@aerith.net). All rights reserved.